Location: Campolattaro
(41.2833°N, 14.7333°E)
Time: 00:40:25
(UTC+00:00)

Cosmos 1606 Rocket - Pass Details

Date: 19 May 2025
Orbit: 596 x 626 km, 82.5° (Epoch: 23 June)

Event Time Altitude Azimuth Distance (km) Brightness Sun altitude
Rises 19:17:19 0° 195° (SSW) 2,893 6.8 -10.3°
Reaches altitude 10° 19:19:34 10° 199° (SSW) 1,993 6.0 -10.7°
Maximum altitude 19:23:56 61° 280° (W) 715 4.2 -11.3°
Drops below altitude 10° 19:28:21 10° 1° (N) 2,009 6.8 -11.9°
Sets 19:30:37 0° 5° (N) 2,919 7.6 -12.2°
